NSZ3776 EKCH-LRCL

Flight info

Callsign NSZ3776
Flight time 1h 45m
Altitude 37000
Route SIMEG Z491 TELMO DCT POKEN Z491 VAVUN L996 DENKO L619 ADVAB L623 LENOV DCT LARMU
Aircraft B738/M-SDE2E3GHIJ1LRWXY/LB1

Departure

Time 2026-05-05 06:48
Airport Copenhagen Kastrup Airport (EKCH)

Arrival

Time 2026-05-05 08:34
Airport Avram Iancu Cluj International Airport (LRCL)
Time Latitude Longitude Altitude Speed Heading
2026-05-05 06:32 55.62880 12.63999 16 ft 0 kts 12°
2026-05-05 06:39 55.62859 12.63991 16 ft 4 kts 12°
2026-05-05 06:39 55.62836 12.63982 16 ft 4 kts 37°
2026-05-05 06:39 55.62829 12.63951 16 ft 4 kts 104°
2026-05-05 06:39 55.62834 12.63915 16 ft 4 kts 104°
2026-05-05 06:40 55.62840 12.63875 16 ft 1 kts 104°
2026-05-05 06:42 55.62839 12.63880 16 ft 3 kts 104°
2026-05-05 06:43 55.62809 12.63966 16 ft 12 kts 141°
2026-05-05 06:43 55.62770 12.63954 16 ft 7 kts 213°
2026-05-05 06:43 55.62718 12.63896 18 ft 10 kts 212°
2026-05-05 06:43 55.62652 12.63858 16 ft 11 kts 155°
2026-05-05 06:44 55.62597 12.63997 18 ft 15 kts 123°
2026-05-05 06:44 55.62540 12.64152 16 ft 15 kts 123°
2026-05-05 06:44 55.62489 12.64290 16 ft 12 kts 124°
2026-05-05 06:44 55.62439 12.64410 16 ft 12 kts 127°
2026-05-05 06:45 55.62365 12.64441 16 ft 12 kts 194°
2026-05-05 06:45 55.62313 12.64420 18 ft 12 kts 194°
2026-05-05 06:45 55.62235 12.64377 14 ft 13 kts 202°
2026-05-05 06:45 55.62151 12.64306 16 ft 13 kts 206°
2026-05-05 06:46 55.62069 12.64237 16 ft 13 kts 205°
2026-05-05 06:46 55.61989 12.64170 17 ft 13 kts 206°
2026-05-05 06:46 55.61886 12.64083 17 ft 12 kts 205°
2026-05-05 06:46 55.61804 12.64074 18 ft 12 kts 175°
2026-05-05 06:47 55.61760 12.64080 17 ft 8 kts 176°
2026-05-05 06:47 55.61721 12.64084 17 ft 6 kts 175°
2026-05-05 06:47 55.61659 12.64092 19 ft 11 kts 176°
2026-05-05 06:47 55.61599 12.64035 20 ft 10 kts 221°
2026-05-05 06:48 55.61428 12.63768 19 ft 68 kts 221°
2026-05-05 06:48 55.60893 12.62940 18 ft 134 kts 221°
2026-05-05 06:48 55.60068 12.61684 245 ft 167 kts 223°
2026-05-05 06:48 55.59178 12.60280 945 ft 177 kts 224°
2026-05-05 06:49 55.58253 12.58854 1759 ft 178 kts 223°
2026-05-05 06:49 55.57291 12.57460 2498 ft 179 kts 220°
2026-05-05 06:49 55.56258 12.56012 2901 ft 204 kts 211°
2026-05-05 06:49 55.54851 12.55101 3122 ft 228 kts 198°
2026-05-05 06:50 55.53299 12.54217 3522 ft 237 kts 200°
2026-05-05 06:50 55.51715 12.53259 3955 ft 250 kts 201°
2026-05-05 06:50 55.49995 12.52398 4456 ft 264 kts 185°
2026-05-05 06:50 55.48213 12.53175 5280 ft 272 kts 150°
2026-05-05 06:51 55.46871 12.55544 6129 ft 279 kts 126°
2026-05-05 06:51 55.45979 12.58629 6806 ft 289 kts 116°
2026-05-05 06:51 55.45225 12.61932 7516 ft 293 kts 114°
2026-05-05 06:51 55.44497 12.65312 8186 ft 300 kts 114°
2026-05-05 06:52 55.43747 12.68765 8900 ft 303 kts 114°
2026-05-05 06:52 55.42984 12.72253 9587 ft 309 kts 115°
2026-05-05 06:52 55.42195 12.75811 10173 ft 316 kts 115°
2026-05-05 06:52 55.41380 12.79439 10587 ft 328 kts 115°
2026-05-05 06:53 55.40528 12.83206 11192 ft 334 kts 115°
2026-05-05 06:53 55.39663 12.87015 11887 ft 337 kts 116°
2026-05-05 06:53 55.38787 12.90865 12589 ft 341 kts 116°
2026-05-05 06:53 55.37895 12.94753 13298 ft 345 kts 116°
2026-05-05 06:54 55.36989 12.98682 13993 ft 349 kts 116°
2026-05-05 06:54 55.36074 13.02648 14660 ft 352 kts 116°
2026-05-05 06:54 55.35146 13.06656 15354 ft 356 kts 116°
2026-05-05 06:54 55.34210 13.10703 16027 ft 359 kts 116°
2026-05-05 06:55 55.33263 13.14786 16720 ft 362 kts 116°
2026-05-05 06:55 55.32308 13.18897 17428 ft 365 kts 116°
2026-05-05 06:55 55.31342 13.23044 18101 ft 369 kts 117°
2026-05-05 06:55 55.30365 13.27231 18697 ft 373 kts 117°
2026-05-05 06:56 55.29379 13.31452 19305 ft 375 kts 117°
2026-05-05 06:56 55.28384 13.35703 19893 ft 378 kts 117°
2026-05-05 06:56 55.27384 13.39969 20544 ft 379 kts 117°
2026-05-05 06:56 55.26376 13.44258 21129 ft 382 kts 117°
2026-05-05 06:57 55.25355 13.48581 21680 ft 386 kts 118°
2026-05-05 06:57 55.24215 13.52837 22218 ft 386 kts 123°
2026-05-05 06:57 55.22924 13.57002 22846 ft 389 kts 125°
2026-05-05 06:57 55.21597 13.61143 23503 ft 391 kts 125°
2026-05-05 06:58 55.20255 13.65305 23960 ft 394 kts 125°
2026-05-05 06:58 55.18908 13.69506 24373 ft 398 kts 125°
2026-05-05 06:58 55.17552 13.73759 24816 ft 402 kts 125°
2026-05-05 06:58 55.16192 13.78042 25276 ft 404 kts 125°
2026-05-05 06:59 55.14823 13.82356 25720 ft 407 kts 125°
2026-05-05 06:59 55.13446 13.86696 26128 ft 410 kts 125°
2026-05-05 06:59 55.12052 13.91082 26519 ft 414 kts 125°
2026-05-05 06:59 55.10786 13.95058 26907 ft 416 kts 125°
2026-05-05 07:00 55.09375 13.99489 27347 ft 419 kts 125°
2026-05-05 07:00 55.07953 14.03941 27769 ft 421 kts 125°
2026-05-05 07:00 55.06517 14.08421 28176 ft 424 kts 125°
2026-05-05 07:00 55.04957 14.12736 28551 ft 420 kts 134°
2026-05-05 07:01 55.03057 14.16573 28921 ft 418 kts 139°
2026-05-05 07:01 55.01076 14.20290 29305 ft 420 kts 140°
2026-05-05 07:01 54.99077 14.24019 29661 ft 422 kts 140°
2026-05-05 07:01 54.97100 14.27730 30026 ft 425 kts 140°
2026-05-05 07:02 54.95093 14.31528 30314 ft 427 kts 139°
2026-05-05 07:02 54.93095 14.35335 30709 ft 426 kts 139°
2026-05-05 07:02 54.91101 14.39135 31079 ft 426 kts 139°
2026-05-05 07:02 54.89098 14.42947 31316 ft 429 kts 139°
2026-05-05 07:03 54.87077 14.46782 31544 ft 432 kts 139°
2026-05-05 07:03 54.85039 14.50645 31820 ft 434 kts 139°
2026-05-05 07:03 54.82863 14.54239 32090 ft 428 kts 149°
2026-05-05 07:03 54.80409 14.57083 32337 ft 422 kts 158°
2026-05-05 07:04 54.77766 14.59190 32587 ft 416 kts 167°
2026-05-05 07:04 54.75035 14.60838 32848 ft 416 kts 168°
2026-05-05 07:04 54.72285 14.62460 33081 ft 419 kts 168°
2026-05-05 07:04 54.69532 14.64097 33341 ft 421 kts 168°
2026-05-05 07:05 54.66758 14.65774 33590 ft 423 kts 167°
2026-05-05 07:05 54.63978 14.67475 33815 ft 425 kts 167°
2026-05-05 07:05 54.61187 14.69187 34031 ft 426 kts 167°
2026-05-05 07:05 54.58419 14.70886 34320 ft 424 kts 167°
2026-05-05 07:06 54.55630 14.72594 34477 ft 427 kts 167°
2026-05-05 07:06 54.52834 14.74299 34608 ft 430 kts 167°
2026-05-05 07:06 54.50007 14.76021 34763 ft 431 kts 167°
2026-05-05 07:06 54.47171 14.77750 34962 ft 433 kts 167°
2026-05-05 07:07 54.44331 14.79479 35130 ft 434 kts 167°
2026-05-05 07:07 54.41479 14.81214 35297 ft 436 kts 166°
2026-05-05 07:07 54.38617 14.82953 35471 ft 437 kts 166°
2026-05-05 07:07 54.35750 14.84690 35697 ft 437 kts 166°
2026-05-05 07:08 54.32890 14.86423 35949 ft 435 kts 166°
2026-05-05 07:08 54.30037 14.88150 36193 ft 434 kts 166°
2026-05-05 07:08 54.27187 14.89867 36341 ft 435 kts 166°
2026-05-05 07:08 54.24315 14.91538 36504 ft 436 kts 167°
2026-05-05 07:09 54.21481 14.93150 36732 ft 435 kts 167°
2026-05-05 07:09 54.18610 14.94773 36936 ft 435 kts 167°
2026-05-05 07:09 54.15687 14.96426 36927 ft 439 kts 167°
2026-05-05 07:10 54.09876 14.99727 36937 ft 440 kts 167°
2026-05-05 07:10 54.04109 15.02956 36946 ft 439 kts 167°
2026-05-05 07:11 53.98274 15.06109 36928 ft 441 kts 167°
2026-05-05 07:11 53.92437 15.09259 36925 ft 439 kts 167°
2026-05-05 07:12 53.86631 15.12397 36937 ft 437 kts 167°
2026-05-05 07:12 53.80839 15.15522 36933 ft 436 kts 167°
2026-05-05 07:13 53.75064 15.18628 36928 ft 435 kts 167°
2026-05-05 07:13 53.69292 15.21716 36930 ft 435 kts 167°
2026-05-05 07:14 53.63515 15.24796 36936 ft 436 kts 167°
2026-05-05 07:14 53.57718 15.27876 36932 ft 437 kts 167°
2026-05-05 07:15 53.51906 15.30970 36926 ft 439 kts 167°
2026-05-05 07:15 53.46103 15.34211 36915 ft 443 kts 161°
2026-05-05 07:16 53.40514 15.38680 36926 ft 446 kts 159°
2026-05-05 07:16 53.34887 15.43058 36929 ft 446 kts 160°
2026-05-05 07:17 53.29220 15.47350 36927 ft 448 kts 160°
2026-05-05 07:17 53.23547 15.51670 36911 ft 448 kts 160°
2026-05-05 07:18 53.17885 15.55983 36913 ft 447 kts 160°
2026-05-05 07:18 53.12230 15.60274 36917 ft 446 kts 160°
2026-05-05 07:19 53.06579 15.64549 36922 ft 446 kts 160°
2026-05-05 07:19 53.00930 15.68812 36922 ft 446 kts 160°
2026-05-05 07:20 52.95282 15.73080 36906 ft 446 kts 160°
2026-05-05 07:20 52.89646 15.77332 36907 ft 445 kts 160°
2026-05-05 07:21 52.84016 15.81563 36910 ft 444 kts 160°
2026-05-05 07:21 52.78771 15.86898 36925 ft 451 kts 146°
2026-05-05 07:22 52.73915 15.93477 36904 ft 451 kts 145°
2026-05-05 07:22 52.69055 16.00015 36912 ft 451 kts 146°
2026-05-05 07:23 52.64161 16.06475 36883 ft 451 kts 146°
2026-05-05 07:23 52.59260 16.12905 36901 ft 451 kts 146°
2026-05-05 07:24 52.54346 16.19336 36884 ft 452 kts 146°
2026-05-05 07:24 52.49421 16.25769 36894 ft 452 kts 146°
2026-05-05 07:25 52.44504 16.32177 36898 ft 452 kts 146°
2026-05-05 07:25 52.39583 16.38577 36897 ft 451 kts 146°
2026-05-05 07:26 52.34664 16.44956 36894 ft 451 kts 146°
2026-05-05 07:26 52.29731 16.51331 36891 ft 452 kts 146°
2026-05-05 07:27 52.24798 16.57691 36892 ft 452 kts 146°
2026-05-05 07:27 52.19863 16.64035 36889 ft 451 kts 146°
2026-05-05 07:28 52.14937 16.70349 36890 ft 450 kts 146°
2026-05-05 07:28 52.10251 16.77152 36899 ft 454 kts 138°
2026-05-05 07:29 52.05910 16.84633 36891 ft 455 kts 137°
2026-05-05 07:29 52.01565 16.92100 36882 ft 454 kts 137°
2026-05-05 07:30 51.97191 16.99474 36882 ft 453 kts 138°
2026-05-05 07:30 51.90613 17.10442 36882 ft 452 kts 138°
2026-05-05 07:31 51.86233 17.17733 36888 ft 451 kts 138°
2026-05-05 07:31 51.81855 17.25007 36888 ft 451 kts 138°
2026-05-05 07:32 51.78240 17.31087 36884 ft 452 kts 137°
2026-05-05 07:32 51.73887 17.38413 36893 ft 452 kts 138°
2026-05-05 07:33 51.69497 17.45693 36864 ft 453 kts 138°
2026-05-05 07:33 51.65072 17.52920 36880 ft 453 kts 138°
2026-05-05 07:34 51.60636 17.60149 36884 ft 454 kts 138°
2026-05-05 07:34 51.56189 17.67387 36882 ft 455 kts 138°
2026-05-05 07:35 51.51735 17.74621 36884 ft 455 kts 138°
2026-05-05 07:35 51.47272 17.81850 36881 ft 456 kts 138°
2026-05-05 07:36 51.42803 17.89068 36884 ft 456 kts 138°
2026-05-05 07:36 51.38326 17.96272 36885 ft 456 kts 139°
2026-05-05 07:37 51.33852 18.03460 36884 ft 455 kts 138°
2026-05-05 07:37 51.29384 18.10615 36887 ft 454 kts 138°
2026-05-05 07:38 51.24914 18.17750 36882 ft 454 kts 139°
2026-05-05 07:38 51.20449 18.24859 36884 ft 453 kts 139°
2026-05-05 07:39 51.15980 18.31950 36883 ft 453 kts 139°
2026-05-05 07:39 51.11518 18.39011 36882 ft 452 kts 138°
2026-05-05 07:40 51.07087 18.46002 36887 ft 451 kts 139°
2026-05-05 07:40 51.02628 18.53020 36883 ft 451 kts 138°
2026-05-05 07:41 50.98172 18.60012 36889 ft 450 kts 138°
2026-05-05 07:41 50.93721 18.67011 36898 ft 451 kts 138°
2026-05-05 07:42 50.89266 18.74007 36893 ft 451 kts 139°
2026-05-05 07:42 50.84756 18.80928 36898 ft 452 kts 139°
2026-05-05 07:43 50.80216 18.87804 36898 ft 452 kts 139°
2026-05-05 07:43 50.75671 18.94679 36898 ft 453 kts 139°
2026-05-05 07:44 50.71119 19.01562 36885 ft 453 kts 139°
2026-05-05 07:44 50.66569 19.08435 36898 ft 453 kts 139°
2026-05-05 07:45 50.62009 19.15293 36911 ft 453 kts 139°
2026-05-05 07:45 50.57447 19.22138 36913 ft 453 kts 139°
2026-05-05 07:46 50.52880 19.28970 36910 ft 453 kts 139°
2026-05-05 07:46 50.48278 19.35726 36910 ft 453 kts 140°
2026-05-05 07:47 50.43665 19.42448 36915 ft 452 kts 140°
2026-05-05 07:47 50.39060 19.49160 36902 ft 452 kts 140°
2026-05-05 07:48 50.34453 19.55860 36921 ft 452 kts 140°
2026-05-05 07:48 50.29847 19.62546 36928 ft 452 kts 140°
2026-05-05 07:49 50.25240 19.69219 36923 ft 452 kts 140°
2026-05-05 07:49 50.20637 19.75907 36938 ft 452 kts 140°
2026-05-05 07:50 50.16021 19.82601 36942 ft 453 kts 140°
2026-05-05 07:50 50.11395 19.89287 36933 ft 454 kts 140°
2026-05-05 07:51 50.06760 19.95966 36936 ft 454 kts 140°
2026-05-05 07:51 50.02159 20.02683 36935 ft 454 kts 139°
2026-05-05 07:52 49.97604 20.09386 36941 ft 454 kts 139°
2026-05-05 07:52 49.93015 20.16112 36953 ft 454 kts 139°
2026-05-05 07:53 49.88417 20.22819 36955 ft 454 kts 139°
2026-05-05 07:53 49.83812 20.29515 36947 ft 454 kts 139°
2026-05-05 07:54 49.79191 20.36185 36960 ft 454 kts 139°
2026-05-05 07:54 49.74558 20.42839 36952 ft 455 kts 139°
2026-05-05 07:55 49.69919 20.49494 36955 ft 455 kts 139°
2026-05-05 07:55 49.65278 20.56135 36972 ft 455 kts 139°
2026-05-05 07:56 49.60635 20.62760 36964 ft 455 kts 139°
2026-05-05 07:56 49.55981 20.69383 36961 ft 456 kts 139°
2026-05-05 07:57 49.51314 20.76007 36969 ft 457 kts 139°
2026-05-05 07:57 49.46638 20.82628 36985 ft 457 kts 139°
2026-05-05 07:58 49.41951 20.89247 36984 ft 458 kts 139°
2026-05-05 07:58 49.37255 20.95863 37001 ft 458 kts 138°
2026-05-05 07:59 49.32494 21.02366 36993 ft 458 kts 144°
2026-05-05 07:59 49.27302 21.08017 37012 ft 458 kts 147°
2026-05-05 08:00 49.22026 21.13477 37002 ft 457 kts 147°
2026-05-05 08:00 49.16775 21.18966 37020 ft 457 kts 147°
2026-05-05 08:01 49.11556 21.24482 37013 ft 456 kts 146°
2026-05-05 08:01 49.06348 21.29998 37024 ft 455 kts 146°
2026-05-05 08:02 49.01147 21.35495 37021 ft 455 kts 146°
2026-05-05 08:02 48.95944 21.40977 37016 ft 455 kts 146°
2026-05-05 08:03 48.90775 21.46409 37018 ft 455 kts 146°
2026-05-05 08:03 48.85571 21.51864 37021 ft 455 kts 146°
2026-05-05 08:04 48.80362 21.57309 37026 ft 455 kts 146°
2026-05-05 08:04 48.75152 21.62740 37040 ft 454 kts 146°
2026-05-05 08:05 48.69943 21.68159 37036 ft 454 kts 146°
2026-05-05 08:05 48.64735 21.73560 37044 ft 454 kts 146°
2026-05-05 08:06 48.59530 21.78946 37046 ft 454 kts 146°
2026-05-05 08:06 48.54322 21.84320 37043 ft 454 kts 146°
2026-05-05 08:07 48.49100 21.89695 36676 ft 459 kts 146°
2026-05-05 08:07 48.46465 21.92404 36187 ft 457 kts 146°
2026-05-05 08:07 48.43840 21.95099 35592 ft 456 kts 146°
2026-05-05 08:08 48.41217 21.97789 34974 ft 457 kts 146°
2026-05-05 08:08 48.38589 22.00480 34354 ft 457 kts 146°
2026-05-05 08:08 48.35954 22.03172 33680 ft 458 kts 146°
2026-05-05 08:08 48.33315 22.05865 32961 ft 459 kts 146°
2026-05-05 08:09 48.30668 22.08564 32262 ft 460 kts 146°
2026-05-05 08:09 48.28021 22.11259 31580 ft 460 kts 146°
2026-05-05 08:09 48.25408 22.13917 30876 ft 460 kts 146°
2026-05-05 08:09 48.22756 22.16611 30159 ft 461 kts 146°
2026-05-05 08:10 48.20097 22.19308 29334 ft 461 kts 146°
2026-05-05 08:10 48.17457 22.21983 28809 ft 455 kts 146°
2026-05-05 08:10 48.14848 22.24624 28237 ft 450 kts 146°
2026-05-05 08:10 48.12267 22.27233 27693 ft 445 kts 146°
2026-05-05 08:11 48.09717 22.29807 27151 ft 440 kts 146°
2026-05-05 08:11 48.07191 22.32354 26613 ft 436 kts 146°
2026-05-05 08:11 48.04684 22.34879 26065 ft 432 kts 146°
2026-05-05 08:11 48.02203 22.37374 25548 ft 428 kts 146°
2026-05-05 08:12 47.99738 22.39851 25019 ft 425 kts 146°
2026-05-05 08:12 47.97291 22.42307 24504 ft 422 kts 146°
2026-05-05 08:12 47.94874 22.44729 23990 ft 419 kts 146°
2026-05-05 08:12 47.92458 22.47147 23430 ft 417 kts 146°
2026-05-05 08:13 47.90056 22.49550 22842 ft 414 kts 146°
2026-05-05 08:13 47.87678 22.51926 22306 ft 409 kts 146°
2026-05-05 08:13 47.85322 22.54277 21787 ft 406 kts 146°
2026-05-05 08:13 47.82991 22.56600 21277 ft 402 kts 146°
2026-05-05 08:14 47.80676 22.58904 20772 ft 398 kts 146°
2026-05-05 08:14 47.78386 22.61182 20270 ft 394 kts 146°
2026-05-05 08:14 47.76111 22.63441 19756 ft 392 kts 146°
2026-05-05 08:14 47.73853 22.65683 19268 ft 389 kts 146°
2026-05-05 08:15 47.71613 22.67903 18781 ft 386 kts 146°
2026-05-05 08:15 47.69386 22.70109 18282 ft 384 kts 146°
2026-05-05 08:15 47.67174 22.72298 17727 ft 381 kts 146°
2026-05-05 08:15 47.64977 22.74469 17205 ft 378 kts 146°
2026-05-05 08:16 47.62797 22.76620 16708 ft 374 kts 146°
2026-05-05 08:16 47.60641 22.78748 16222 ft 371 kts 146°
2026-05-05 08:16 47.58503 22.80853 15740 ft 367 kts 146°
2026-05-05 08:16 47.56381 22.82939 15270 ft 364 kts 146°
2026-05-05 08:17 47.54276 22.85008 14793 ft 362 kts 146°
2026-05-05 08:17 47.52186 22.87063 14325 ft 360 kts 146°
2026-05-05 08:17 47.50108 22.89104 13854 ft 358 kts 146°
2026-05-05 08:17 47.48041 22.91131 13335 ft 356 kts 146°
2026-05-05 08:18 47.45985 22.93147 12875 ft 353 kts 146°
2026-05-05 08:18 47.43964 22.95124 12631 ft 348 kts 146°
2026-05-05 08:18 47.41938 22.97103 12379 ft 351 kts 146°
2026-05-05 08:18 47.39890 22.99104 12131 ft 355 kts 146°
2026-05-05 08:19 47.37836 23.01109 11882 ft 351 kts 146°
2026-05-05 08:19 47.35806 23.03093 11629 ft 350 kts 146°
2026-05-05 08:19 47.34461 23.04404 11456 ft 350 kts 146°
2026-05-05 08:19 47.31770 23.07023 11128 ft 350 kts 146°
2026-05-05 08:20 47.29741 23.08996 10893 ft 349 kts 146°
2026-05-05 08:20 47.27716 23.10961 10663 ft 348 kts 146°
2026-05-05 08:20 47.25627 23.12756 10409 ft 348 kts 155°
2026-05-05 08:20 47.23344 23.13924 10174 ft 347 kts 166°
2026-05-05 08:21 47.20974 23.14512 9926 ft 344 kts 172°
2026-05-05 08:21 47.18611 23.14974 9664 ft 338 kts 172°
2026-05-05 08:21 47.17051 23.15271 9489 ft 332 kts 172°
2026-05-05 08:21 47.14814 23.15700 9220 ft 327 kts 172°
2026-05-05 08:22 47.12571 23.16135 8981 ft 324 kts 172°
2026-05-05 08:22 47.10353 23.16572 8726 ft 318 kts 172°
2026-05-05 08:22 47.08188 23.17003 8457 ft 311 kts 172°
2026-05-05 08:22 47.06066 23.17426 8219 ft 304 kts 172°
2026-05-05 08:23 47.03996 23.17841 7955 ft 298 kts 172°
2026-05-05 08:23 47.01962 23.18248 7710 ft 293 kts 172°
2026-05-05 08:23 46.99960 23.18650 7463 ft 289 kts 172°
2026-05-05 08:23 46.98004 23.19042 7198 ft 284 kts 172°
2026-05-05 08:24 46.96059 23.19431 6977 ft 280 kts 172°
2026-05-05 08:24 46.94154 23.19812 6739 ft 276 kts 172°
2026-05-05 08:24 46.92261 23.20191 6491 ft 273 kts 172°
2026-05-05 08:24 46.90409 23.20565 6392 ft 263 kts 173°
2026-05-05 08:25 46.88646 23.20916 6343 ft 253 kts 172°
2026-05-05 08:25 46.86927 23.21260 6368 ft 247 kts 173°
2026-05-05 08:25 46.85279 23.21590 6335 ft 231 kts 172°
2026-05-05 08:25 46.83737 23.21897 6325 ft 217 kts 173°
2026-05-05 08:26 46.82255 23.22193 6381 ft 213 kts 173°
2026-05-05 08:26 46.80790 23.22487 6355 ft 213 kts 173°
2026-05-05 08:26 46.79324 23.22781 6376 ft 213 kts 173°
2026-05-05 08:26 46.77863 23.23071 6301 ft 210 kts 173°
2026-05-05 08:27 46.76431 23.23360 6133 ft 203 kts 172°
2026-05-05 08:27 46.75070 23.23626 6063 ft 193 kts 172°
2026-05-05 08:27 46.73750 23.23888 5759 ft 192 kts 172°
2026-05-05 08:27 46.72516 23.24565 5358 ft 194 kts 138°
2026-05-05 08:28 46.71861 23.26231 5124 ft 192 kts 105°
2026-05-05 08:28 46.71647 23.28141 4869 ft 190 kts 98°
2026-05-05 08:28 46.71493 23.30057 4538 ft 189 kts 97°
2026-05-05 08:28 46.71341 23.31958 4190 ft 192 kts 97°
2026-05-05 08:29 46.71175 23.33925 4102 ft 196 kts 96°
2026-05-05 08:29 46.71360 23.35811 3992 ft 190 kts 61°
2026-05-05 08:29 46.71966 23.37493 3991 ft 190 kts 78°
2026-05-05 08:30 46.72627 23.41232 4020 ft 197 kts 72°
2026-05-05 08:30 46.73068 23.43115 4012 ft 195 kts 73°
2026-05-05 08:30 46.73482 23.44969 4025 ft 190 kts 73°
2026-05-05 08:30 46.73892 23.46813 3974 ft 192 kts 73°
2026-05-05 08:31 46.74314 23.48701 3724 ft 196 kts 73°
2026-05-05 08:31 46.74730 23.50560 3469 ft 188 kts 72°
2026-05-05 08:31 46.75126 23.52328 3200 ft 179 kts 73°
2026-05-05 08:31 46.75502 23.54009 2957 ft 171 kts 72°
2026-05-05 08:32 46.75853 23.55575 2770 ft 162 kts 72°
2026-05-05 08:32 46.76198 23.57114 2551 ft 158 kts 72°
2026-05-05 08:32 46.76535 23.58622 2350 ft 154 kts 72°
2026-05-05 08:32 46.76867 23.60093 2146 ft 153 kts 72°
2026-05-05 08:33 46.77198 23.61571 1949 ft 154 kts 71°
2026-05-05 08:33 46.77530 23.63050 1742 ft 152 kts 72°
2026-05-05 08:33 46.77855 23.64492 1483 ft 147 kts 72°
2026-05-05 08:33 46.78172 23.65896 1285 ft 145 kts 71°
2026-05-05 08:34 46.78487 23.67284 1072 ft 142 kts 70°
2026-05-05 08:34 46.78772 23.68551 1030 ft 113 kts 71°
2026-05-05 08:34 46.78940 23.69291 1034 ft 42 kts 72°
2026-05-05 08:34 46.78991 23.69462 1035 ft 7 kts 103°
2026-05-05 08:35 46.78964 23.69429 1035 ft 11 kts 257°
2026-05-05 08:35 46.78943 23.69313 1034 ft 13 kts 252°
2026-05-05 08:35 46.78907 23.69183 1034 ft 15 kts 217°
2026-05-05 08:35 46.78778 23.69225 1032 ft 22 kts 160°
2026-05-05 08:36 46.78638 23.69294 1032 ft 19 kts 169°
2026-05-05 08:36 46.78584 23.69147 1032 ft 18 kts 258°
2026-05-05 08:36 46.78560 23.68972 1032 ft 17 kts 259°
2026-05-05 08:36 46.78536 23.68803 1032 ft 17 kts 258°
2026-05-05 08:37 46.78507 23.68648 1032 ft 15 kts 219°
2026-05-05 08:37 46.78409 23.68661 1032 ft 14 kts 168°
2026-05-05 08:37 46.78335 23.68684 1032 ft 9 kts 164°
2026-05-05 08:37 46.78327 23.68767 1032 ft 9 kts 82°
2026-05-05 08:38 46.78354 23.68807 1032 ft 3 kts 351°